OAL220 LGPA-LGAV

Flight info

Callsign OAL220
Flight time 0h 25m
Altitude 12000
Route DCT BIBEX BIBEX1Q
Aircraft AT76/M-SDE3L/L

Departure

Time 2026-05-04 13:39
Airport Paros National Airport (LGPA)

Arrival

Time 2026-05-04 14:04
Airport Athens Eleftherios Venizelos International Airport (LGAV)
Time Latitude Longitude Altitude Speed Heading
2026-05-04 13:25 37.02073 25.11524 137 ft 0 kts 348°
2026-05-04 13:36 37.02082 25.11512 137 ft 3 kts 292°
2026-05-04 13:37 37.02035 25.11489 137 ft 17 kts 181°
2026-05-04 13:37 37.01882 25.11447 136 ft 25 kts 215°
2026-05-04 13:37 37.01713 25.11404 135 ft 26 kts 168°
2026-05-04 13:37 37.01594 25.11434 135 ft 27 kts 160°
2026-05-04 13:38 37.01506 25.11447 135 ft 3 kts 338°
2026-05-04 13:38 37.01611 25.11423 135 ft 44 kts 349°
2026-05-04 13:38 37.02125 25.11298 139 ft 103 kts 351°
2026-05-04 13:38 37.02883 25.11115 556 ft 110 kts 346°
2026-05-04 13:39 37.03631 25.10943 1286 ft 107 kts 346°
2026-05-04 13:39 37.04178 25.10394 1952 ft 112 kts 296°
2026-05-04 13:39 37.04560 25.09504 2305 ft 124 kts 324°
2026-05-04 13:39 37.05238 25.08803 2814 ft 130 kts 308°
2026-05-04 13:40 37.05794 25.07867 3450 ft 140 kts 310°
2026-05-04 13:40 37.06408 25.06873 3984 ft 147 kts 310°
2026-05-04 13:40 37.07071 25.05799 4369 ft 163 kts 310°
2026-05-04 13:40 37.07792 25.04632 4759 ft 175 kts 310°
2026-05-04 13:41 37.08559 25.03388 5156 ft 185 kts 310°
2026-05-04 13:41 37.09359 25.02092 5531 ft 191 kts 310°
2026-05-04 13:41 37.10178 25.00758 5920 ft 195 kts 310°
2026-05-04 13:42 37.11867 24.98018 6685 ft 201 kts 310°
2026-05-04 13:42 37.12728 24.96621 7048 ft 203 kts 310°
2026-05-04 13:42 37.13595 24.95219 7417 ft 204 kts 310°
2026-05-04 13:42 37.14489 24.93840 7792 ft 203 kts 316°
2026-05-04 13:43 37.15461 24.92545 8181 ft 204 kts 311°
2026-05-04 13:43 37.16324 24.91151 8556 ft 206 kts 309°
2026-05-04 13:43 37.17196 24.89712 8953 ft 208 kts 309°
2026-05-04 13:43 37.18072 24.88286 9339 ft 209 kts 310°
2026-05-04 13:44 37.18993 24.86845 9738 ft 210 kts 311°
2026-05-04 13:44 37.19917 24.85414 10122 ft 211 kts 311°
2026-05-04 13:44 37.20842 24.83985 10486 ft 212 kts 311°
2026-05-04 13:44 37.21773 24.82549 10853 ft 212 kts 311°
2026-05-04 13:45 37.22706 24.81111 11222 ft 213 kts 311°
2026-05-04 13:45 37.23640 24.79671 11599 ft 213 kts 311°
2026-05-04 13:45 37.24577 24.78222 11952 ft 215 kts 311°
2026-05-04 13:45 37.25554 24.76722 12046 ft 228 kts 312°
2026-05-04 13:46 37.26584 24.75143 12087 ft 239 kts 312°
2026-05-04 13:46 37.27296 24.74059 12100 ft 246 kts 312°
2026-05-04 13:46 37.28404 24.72381 12109 ft 254 kts 312°
2026-05-04 13:46 37.29547 24.70653 12116 ft 260 kts 311°
2026-05-04 13:47 37.30699 24.68880 12125 ft 265 kts 311°
2026-05-04 13:47 37.31870 24.67068 12114 ft 268 kts 311°
2026-05-04 13:47 37.33026 24.65222 12116 ft 271 kts 307°
2026-05-04 13:47 37.33999 24.63188 12124 ft 273 kts 302°
2026-05-04 13:48 37.34910 24.61088 12118 ft 275 kts 301°
2026-05-04 13:48 37.35804 24.58959 12120 ft 276 kts 300°
2026-05-04 13:48 37.36691 24.56816 12122 ft 277 kts 300°
2026-05-04 13:48 37.37577 24.54659 12120 ft 278 kts 300°
2026-05-04 13:49 37.38463 24.52498 12120 ft 278 kts 300°
2026-05-04 13:49 37.39350 24.50332 12119 ft 279 kts 300°
2026-05-04 13:49 37.40238 24.48159 12125 ft 279 kts 300°
2026-05-04 13:49 37.41120 24.46007 12121 ft 281 kts 300°
2026-05-04 13:50 37.42010 24.43826 12126 ft 281 kts 300°
2026-05-04 13:50 37.42905 24.41633 12116 ft 281 kts 300°
2026-05-04 13:50 37.43798 24.39443 12112 ft 281 kts 300°
2026-05-04 13:50 37.44693 24.37253 12127 ft 282 kts 300°
2026-05-04 13:51 37.45575 24.35089 12116 ft 282 kts 300°
2026-05-04 13:51 37.46469 24.32895 12066 ft 279 kts 300°
2026-05-04 13:51 37.47346 24.30750 11757 ft 273 kts 300°
2026-05-04 13:51 37.48208 24.28637 11452 ft 269 kts 300°
2026-05-04 13:52 37.49881 24.24506 10850 ft 262 kts 300°
2026-05-04 13:52 37.50701 24.22472 10561 ft 259 kts 300°
2026-05-04 13:52 37.51514 24.20455 10223 ft 259 kts 300°
2026-05-04 13:53 37.52332 24.18432 9835 ft 259 kts 300°
2026-05-04 13:53 37.53141 24.16402 9436 ft 258 kts 298°
2026-05-04 13:53 37.53955 24.14410 9038 ft 255 kts 302°
2026-05-04 13:54 37.55795 24.10607 8258 ft 253 kts 304°
2026-05-04 13:54 37.56736 24.08740 7876 ft 252 kts 304°
2026-05-04 13:54 37.58628 24.05043 7123 ft 250 kts 305°
2026-05-04 13:55 37.59574 24.03214 6750 ft 249 kts 305°
2026-05-04 13:55 37.61457 23.99574 6161 ft 239 kts 303°
2026-05-04 13:55 37.62280 23.97832 5910 ft 234 kts 304°
2026-05-04 13:56 37.63154 23.96083 5514 ft 237 kts 304°
2026-05-04 13:56 37.64054 23.94324 5145 ft 239 kts 305°
2026-05-04 13:56 37.65876 23.90779 4386 ft 242 kts 305°
2026-05-04 13:57 37.66792 23.89014 4171 ft 237 kts 305°
2026-05-04 13:57 37.67684 23.87303 4079 ft 229 kts 305°
2026-05-04 13:58 37.70189 23.82487 3999 ft 210 kts 305°
2026-05-04 13:58 37.71973 23.79799 3993 ft 195 kts 339°
2026-05-04 13:58 37.73337 23.79639 3741 ft 205 kts
2026-05-04 13:59 37.74814 23.79752 3377 ft 218 kts
2026-05-04 13:59 37.76337 23.79918 3175 ft 219 kts
2026-05-04 13:59 37.78935 23.81520 3034 ft 208 kts 35°
2026-05-04 14:00 37.80071 23.82629 3011 ft 205 kts 35°
2026-05-04 14:00 37.82308 23.84795 2858 ft 207 kts 33°
2026-05-04 14:00 37.83482 23.85884 2573 ft 210 kts 34°
2026-05-04 14:01 37.84538 23.86894 2302 ft 194 kts 34°
2026-05-04 14:01 37.85570 23.87884 2074 ft 177 kts 34°
2026-05-04 14:01 37.87396 23.89610 1611 ft 154 kts 33°
2026-05-04 14:02 37.88183 23.90373 1437 ft 132 kts 33°
2026-05-04 14:02 37.88898 23.91050 1234 ft 126 kts 33°
2026-05-04 14:02 37.89588 23.91681 1072 ft 121 kts 33°
2026-05-04 14:02 37.90274 23.92318 896 ft 123 kts 37°
2026-05-04 14:03 37.90960 23.92949 740 ft 120 kts 36°
2026-05-04 14:03 37.91618 23.93595 574 ft 119 kts 38°
2026-05-04 14:03 37.92179 23.94148 465 ft 115 kts 37°
2026-05-04 14:03 37.92810 23.94750 333 ft 115 kts 39°
2026-05-04 14:04 37.93620 23.95527 278 ft 10 kts 35°
2026-05-04 14:04 37.93692 23.95596 276 ft 16 kts 38°
2026-05-04 14:04 37.93801 23.95676 276 ft 20 kts 20°
2026-05-04 14:05 37.93951 23.95720 282 ft 21 kts
2026-05-04 14:05 37.94018 23.95727 292 ft 19 kts 346°
2026-05-04 14:05 37.94062 23.95671 293 ft 18 kts 308°
2026-05-04 14:06 37.94104 23.95603 295 ft 22 kts 307°
2026-05-04 14:06 37.94158 23.95527 296 ft 25 kts 328°
2026-05-04 14:06 37.94224 23.95452 299 ft 28 kts 304°
2026-05-04 14:06 37.94277 23.95359 297 ft 25 kts 308°
2026-05-04 14:07 37.94314 23.95350 298 ft 12 kts 36°
2026-05-04 14:07 37.94330 23.95377 298 ft 9 kts 48°
2026-05-04 14:07 37.94340 23.95387 299 ft 0 kts 38°